Tracking 28125 objects as of 2-Oct-2023
HD Live streaming from Space Station
objects crossing your sky now

STARLINK-5320

Track STARLINK-5320 now!
10-day predictions
STARLINK-5320 is classified as:


NORAD ID: 55289
Int'l Code: 2023-010W
Perigee: 577.1 km
Apogee: 581.3 km
Inclination: 70.0 °
Period: 96.1 minutes
Semi major axis: 6950 km
RCS: Unknown
Launch date: January 19, 2023
Source: United States (US)
Launch site: AIR FORCE WESTERN TEST RANGE (AFWTR)
Your satellite tracking list
Your tracking list is empty




NASA's NSSDC Master Catalog

Two Line Element Set (TLE):
1 55289U 23010W   23274.89013705  .00000150  00000-0  20366-4 0  9993
2 55289  69.9992 108.0479 0003029 269.2392  90.8420 14.98335802 39986
Source of the keplerian elements: AFSPC